Date String (YYYY-MM-DD hh:mm:ss) UTC,Instrument flags,absolute air pressure of the measurement (hPa),sample flow rate (lpm),inlet stack bypass flow (lpm),air temperature of the measurement (°C),ambient temperature measured by the external sensor (°C),aerosol sample conditioner tube jacket temperature (°C),OPC LED temperature (°C),internal box temperature (°C),relative humidity of the measurement (%),span deviation,mass concentration of particles derived from Lorenz-Mie calculation of OPC scattering (μg/m³),mass concentration of particles derived from Lorenz-Mie calculation of OPC scattering (μg/m³),mass concentration of particles derived from Lorenz-Mie calculation of OPC scattering (μg/m³)
DateTimeUTC,F1_M11,P_M11,Q1_M11,Q2_M11,T1_M11,T2_M11,T3_M11,T4_M11,T5_M11,U1_M11,ZSPAN_M11,X0_M11,X2_M11,X1_M11
2023-08-16 19:00:00,SystemResetWarning,0832.3,5.00,000.00,028.5,026.0,000.0,036.7,030.0,23.4,0000.0,0009.22,0004.22,0003.72
2023-08-16 19:01:00,SystemResetWarning,0832.3,5.00,000.00,028.5,026.4,000.0,036.7,030.1,23.2,0000.0,0009.05,0004.19,0003.71
2023-08-16 19:02:00,SystemResetWarning,0832.3,5.00,000.00,028.5,026.6,000.0,036.8,030.2,22.5,0000.0,0008.63,0004.17,0003.71
2023-08-16 19:03:00,SystemResetWarning,0832.3,4.98,000.00,028.5,025.6,000.0,036.7,030.0,23.4,0000.0,0008.57,0004.19,0003.72
2023-08-16 19:04:00,SystemResetWarning,0832.3,5.01,000.00,028.4,024.7,000.0,036.6,029.8,23.2,0000.0,0007.94,0004.19,0003.73
2023-08-16 19:05:00,SystemResetWarning,0832.3,5.01,000.00,028.4,025.0,000.0,036.5,029.8,22.9,0000.0,0007.93,0004.18,0003.73
2023-08-16 19:06:00,SystemResetWarning,0832.2,5.00,000.00,028.4,025.4,000.0,036.6,029.8,22.5,0000.0,0007.85,0004.16,0003.73
2023-08-16 19:07:00,SystemResetWarning,0832.3,4.99,000.00,028.4,025.8,000.0,036.7,029.9,23.0,0000.0,0007.85,0004.15,0003.73
2023-08-16 19:08:00,SystemResetWarning,0832.3,5.00,000.00,028.4,026.3,000.0,036.7,030.0,23.2,0000.0,0007.89,0004.14,0003.73
2023-08-16 19:09:00,SystemResetWarning,0832.2,5.00,000.00,028.5,026.7,000.0,036.7,030.2,23.2,0000.0,0007.78,0004.17,0003.74
2023-08-16 19:10:00,SystemResetWarning,0832.2,4.99,000.00,028.5,027.0,000.0,036.8,030.3,23.4,0000.0,0007.69,0004.18,0003.75
2023-08-16 19:11:00,SystemResetWarning,0832.2,4.99,000.00,028.6,026.6,000.0,036.7,030.2,23.0,0000.0,0007.68,0004.17,0003.75
2023-08-16 19:12:00,SystemResetWarning,0832.2,5.00,000.00,028.5,025.1,000.0,036.6,029.9,23.7,0000.0,0007.95,0004.19,0003.76
2023-08-16 19:13:00,SystemResetWarning,0832.1,5.01,000.00,028.5,024.9,000.0,036.5,029.9,23.9,0000.0,0008.70,0004.24,0003.77
2023-08-16 19:14:00,SystemResetWarning,0832.2,5.01,000.00,028.4,025.3,000.0,036.6,029.9,24.7,0000.0,0008.70,0004.24,0003.78
2023-08-16 19:15:00,SystemResetWarning,0832.2,4.99,000.00,028.4,025.7,000.0,036.6,029.9,24.2,0000.0,0008.79,0004.25,0003.80
2023-08-16 19:16:00,SystemResetWarning,0832.1,5.00,000.00,028.4,026.1,000.0,036.7,030.0,23.8,0000.0,0008.70,0004.23,0003.81
2023-08-16 19:17:00,SystemResetWarning,0832.1,5.01,000.00,028.5,026.5,000.0,036.7,030.1,24.2,0000.0,0009.37,0004.28,0003.85
2023-08-16 19:18:00,SystemResetWarning,0832.1,5.01,000.00,028.5,026.9,000.0,036.7,030.2,25.1,0000.0,0009.39,0004.30,0003.88
2023-08-16 19:19:00,SystemResetWarning,0832.1,5.01,000.00,028.6,027.1,000.0,036.8,030.3,24.7,0000.0,0009.68,0004.33,0003.91
2023-08-16 19:20:00,SystemResetWarning,0832.1,4.98,000.00,028.6,026.0,000.0,036.7,030.1,24.6,0000.0,0009.91,0004.40,0003.93
2023-08-16 19:21:00,SystemResetWarning,0832.0,5.01,000.00,028.5,025.0,000.0,036.6,029.9,25.1,0000.0,0009.97,0004.41,0003.95
2023-08-16 19:22:00,SystemResetWarning,0832.0,5.01,000.00,028.5,025.3,000.0,036.6,029.9,25.3,0000.0,0010.52,0004.46,0003.97
2023-08-16 19:23:00,SystemResetWarning,0832.0,5.00,000.00,028.4,025.6,000.0,036.6,029.9,25.6,0000.0,0011.15,0004.47,0003.98
2023-08-16 19:24:00,SystemResetWarning,0832.0,5.00,000.00,028.5,026.0,000.0,036.7,030.0,25.5,0000.0,0010.88,0004.46,0003.99
2023-08-16 19:25:00,SystemResetWarning,0832.0,5.00,000.00,028.5,026.5,000.0,036.7,030.2,24.9,0000.0,0011.23,0004.46,0003.98
2023-08-16 19:26:00,SystemResetWarning,0832.0,5.00,000.00,028.5,026.9,000.0,036.8,030.3,24.5,0000.0,0011.09,0004.44,0003.97
2023-08-16 19:27:00,SystemResetWarning,0831.9,5.00,000.00,028.6,026.5,000.0,036.7,030.2,24.1,0000.0,0011.23,0004.46,0003.97
2023-08-16 19:28:00,SystemResetWarning,0831.9,5.00,000.00,028.5,025.1,000.0,036.6,029.9,24.1,0000.0,0011.50,0004.43,0003.94
2023-08-16 19:29:00,SystemResetWarning,0831.9,5.01,000.00,028.4,024.8,000.0,036.6,029.8,23.9,0000.0,0011.37,0004.45,0003.92
2023-08-16 19:30:00,SystemResetWarning,0831.9,5.01,000.00,028.4,025.2,000.0,036.6,029.8,23.6,0000.0,0010.87,0004.42,0003.90
2023-08-16 19:31:00,SystemResetWarning,0831.9,4.99,000.00,028.4,025.6,000.0,036.6,029.8,24.0,0000.0,0010.91,0004.36,0003.88
2023-08-16 19:32:00,SystemResetWarning,0831.9,5.00,000.00,028.4,026.1,000.0,036.7,030.0,23.3,0000.0,0011.15,0004.36,0003.87
2023-08-16 19:33:00,SystemResetWarning,0831.9,5.00,000.00,028.5,026.5,000.0,036.7,030.1,24.1,0000.0,0011.26,0004.33,0003.86
2023-08-16 19:34:00,SystemResetWarning,0831.9,4.99,000.00,028.5,026.9,000.0,036.7,030.2,24.5,0000.0,0010.36,0004.30,0003.85
2023-08-16 19:35:00,SystemResetWarning,0831.9,4.98,000.00,028.5,026.5,000.0,036.7,030.1,24.2,0000.0,0010.33,0004.29,0003.84
2023-08-16 19:36:00,SystemResetWarning,0831.9,5.00,000.00,028.5,025.1,000.0,036.6,029.8,24.2,0000.0,0009.76,0004.30,0003.84
2023-08-16 19:37:00,SystemResetWarning,0831.8,5.01,000.00,028.4,024.8,000.0,036.5,029.7,25.0,0000.0,0010.10,0004.31,0003.84
2023-08-16 19:38:00,SystemResetWarning,0832.1,5.01,000.00,028.4,025.2,000.0,036.6,029.7,25.7,0000.0,0010.25,0004.32,0003.85
2023-08-16 19:39:00,SystemResetWarning,0832.1,4.99,000.00,028.3,025.6,000.0,036.6,029.8,26.2,0000.0,0009.84,0004.34,0003.86
2023-08-16 19:40:00,SystemResetWarning,0832.0,5.00,000.00,028.4,026.0,000.0,036.6,030.0,25.8,0000.0,0010.69,0004.37,0003.87
2023-08-16 19:41:00,SystemResetWarning,0831.9,5.00,000.00,028.4,026.5,000.0,036.7,030.1,26.1,0000.0,0010.99,0004.39,0003.88
2023-08-16 19:42:00,SystemResetWarning,0831.7,5.01,000.00,028.5,026.9,000.0,036.7,030.2,26.8,0000.0,0010.82,0004.41,0003.88
2023-08-16 19:43:00,SystemResetWarning,0832.0,5.00,000.00,028.5,027.1,000.0,036.7,030.3,24.7,0000.0,0010.37,0004.40,0003.88
2023-08-16 19:44:00,SystemResetWarning,0831.7,4.98,000.00,028.5,025.9,000.0,036.6,030.0,25.3,0000.0,0010.29,0004.44,0003.89
2023-08-16 19:45:00,SystemResetWarning,0831.7,5.01,000.00,028.5,024.8,000.0,036.5,029.8,25.0,0000.0,0011.15,0004.49,0003.90
2023-08-16 19:46:00,SystemResetWarning,0831.7,5.01,000.00,028.4,025.1,000.0,036.5,029.8,24.7,0000.0,0011.01,0004.53,0003.92
2023-08-16 19:47:00,SystemResetWarning,0831.7,5.00,000.00,028.4,025.4,000.0,036.6,029.8,25.6,0000.0,0011.10,0004.58,0003.95
2023-08-16 19:48:00,SystemResetWarning,0831.9,5.00,000.00,028.4,025.9,000.0,036.6,029.9,24.4,0000.0,0010.94,0004.60,0003.96
2023-08-16 19:49:00,SystemResetWarning,0832.3,5.00,000.00,028.4,026.3,000.0,036.7,030.0,24.3,0000.0,0011.00,0004.60,0003.95
2023-08-16 19:50:00,SystemResetWarning,0832.2,5.00,000.00,028.5,026.7,000.0,036.7,030.2,24.4,0000.0,0010.93,0004.64,0003.96
2023-08-16 19:51:00,SystemResetWarning,0831.8,5.00,000.00,028.5,027.1,000.0,036.7,030.3,24.2,0000.0,0010.42,0004.63,0003.97
2023-08-16 19:52:00,SystemResetWarning,0831.9,4.99,000.00,028.6,027.3,000.0,036.8,030.3,24.2,0000.0,0010.99,0004.69,0003.99
2023-08-16 19:53:00,SystemResetWarning,0831.9,5.00,000.00,028.6,026.3,000.0,036.7,030.1,24.1,0000.0,0011.32,0004.74,0004.01
2023-08-16 19:54:00,SystemResetWarning,0831.8,5.00,000.00,028.5,025.1,000.0,036.6,029.9,23.9,0000.0,0011.43,0004.80,0004.03
2023-08-16 19:55:00,SystemResetWarning,0831.7,5.02,000.00,028.5,025.3,000.0,036.6,029.9,23.5,0000.0,0011.49,0004.86,0004.06
2023-08-16 19:56:00,SystemResetWarning,0831.8,5.00,000.00,028.5,025.7,000.0,036.6,029.9,23.5,0000.0,0010.87,0004.87,0004.09
2023-08-16 19:57:00,SystemResetWarning,0831.7,5.00,000.00,028.5,026.1,000.0,036.7,030.0,23.7,0000.0,0011.13,0004.89,0004.10
2023-08-16 19:58:00,SystemResetWarning,0831.8,5.01,000.00,028.5,026.5,000.0,036.7,030.2,24.3,0000.0,0011.65,0004.91,0004.12
2023-08-16 19:59:00,SystemResetWarning,0831.8,5.00,000.00,028.6,026.9,000.0,036.8,030.3,23.3,0000.0,0012.50,0004.92,0004.13
